When you browse on this site, cookies collect data to enhance your experience and personalize the content and advertising you see.
Visit our Privacy Policy to learn more. By continuing to use the site, you agree to this use of cookies and data.
  • In United Kingdom
  • List of Countries
  • For 7 days
  • Water Temperature
  • Satellite Maps
  • Weather Map
  • Weather Widgets
  • user-avatar
    Login

    Hourly Weather Korhogo

    Today, 25 June, Tuesday

    Time Temperature Precipitation Wind Pressure Humidity
    00:00 +26°C° 0 mm 2 mps 726 mmHg 85%
    01:00 +26°C° 0 mm 2 mps 726 mmHg 87%
    02:00 +25°C° 0 mm 3 mps 725 mmHg 89%
    03:00 +25°C° 0 mm 3 mps 725 mmHg 91%
    04:00 +24°C° 0 mm 3 mps 725 mmHg 92%
    05:00 +24°C° 0 mm 3 mps 725 mmHg 93%
    06:00 +24°C° 0 mm 2 mps 725 mmHg 94%
    07:00 +25°C° 0 mm 3 mps 725 mmHg 90%
    08:00 +26°C° 0 mm 3 mps 726 mmHg 86%
    09:00 +27°C° 0 mm 3 mps 726 mmHg 83%
    10:00 +28°C° 0 mm 3 mps 726 mmHg 75%
    11:00 +30°C° 0 mm 3 mps 726 mmHg 67%
    12:00 +33°C° 0 mm 3 mps 725 mmHg 59%
    13:00 +34°C° 0 mm 2 mps 725 mmHg 56%
    14:00 +35°C° 0 mm 2 mps 725 mmHg 53%
    15:00 +35°C° 0 mm 1 mps 724 mmHg 50%
    16:00 +34°C° 0 mm 2 mps 724 mmHg 55%
    17:00 +33°C° 0 mm 3 mps 724 mmHg 61%
    18:00 +31°C° 0 mm 3 mps 724 mmHg 67%
    19:00 +29°C° 1.1 mm 3 mps 725 mmHg 74%
    20:00 +28°C° 1.1 mm 3 mps 725 mmHg 81%
    21:00 +26°C° 1.1 mm 2 mps 725 mmHg 88%
    22:00 +26°C° 0.1 mm 2 mps 726 mmHg 87%
    23:00 +26°C° 0.1 mm 2 mps 726 mmHg 87%

    Tomorrow, 26 June, Wednesday

    Time Temperature Precipitation Wind Pressure Humidity
    00:00 +26°C° 0.1 mm 2 mps 726 mmHg 87%
    01:00 +25°C° 0 mm 2 mps 726 mmHg 89%
    02:00 +25°C° 0 mm 2 mps 725 mmHg 91%
    03:00 +25°C° 0 mm 2 mps 725 mmHg 93%
    04:00 +24°C° 0 mm 2 mps 725 mmHg 93%
    05:00 +24°C° 0 mm 2 mps 726 mmHg 94%
    06:00 +24°C° 0 mm 2 mps 726 mmHg 95%
    07:00 +25°C° 0 mm 3 mps 726 mmHg 92%
    08:00 +25°C° 0 mm 4 mps 727 mmHg 89%
    09:00 +26°C° 0 mm 4 mps 727 mmHg 86%
    10:00 +27°C° 0 mm 4 mps 727 mmHg 82%
    11:00 +28°C° 0 mm 4 mps 726 mmHg 78%
    12:00 +29°C° 0 mm 4 mps 726 mmHg 74%
    13:00 +30°C° 0 mm 4 mps 726 mmHg 71%
    14:00 +30°C° 0 mm 3 mps 725 mmHg 68%
    15:00 +31°C° 0 mm 3 mps 725 mmHg 65%
    16:00 +31°C° 0 mm 2 mps 725 mmHg 67%
    17:00 +30°C° 0 mm 2 mps 725 mmHg 69%
    18:00 +30°C° 0 mm 1 mps 725 mmHg 71%
    19:00 +29°C° 0 mm 1 mps 725 mmHg 75%
    20:00 +28°C° 0 mm 1 mps 726 mmHg 80%
    21:00 +27°C° 0 mm 1 mps 726 mmHg 84%
    22:00 +27°C° 0.1 mm 1 mps 727 mmHg 84%
    23:00 +27°C° 0.1 mm 2 mps 727 mmHg 84%

    Day after tomorrow, 27 June, Thursday

    Time Temperature Precipitation Wind Pressure Humidity
    00:00 +26°C° 0.1 mm 2 mps 727 mmHg 84%
    01:00 +26°C° 0 mm 2 mps 727 mmHg 86%
    02:00 +25°C° 0 mm 2 mps 726 mmHg 89%
    03:00 +24°C° 0 mm 3 mps 726 mmHg 91%
    04:00 +24°C° 0 mm 3 mps 726 mmHg 92%
    05:00 +24°C° 0 mm 3 mps 726 mmHg 92%
    06:00 +24°C° 0 mm 3 mps 726 mmHg 93%
    07:00 +25°C° 0 mm 3 mps 727 mmHg 90%
    08:00 +25°C° 0 mm 3 mps 728 mmHg 86%
    09:00 +26°C° 0 mm 3 mps 729 mmHg 83%
    10:00 +27°C° 0.5 mm 3 mps 728 mmHg 80%
    11:00 +28°C° 0.5 mm 2 mps 728 mmHg 77%
    12:00 +28°C° 0.5 mm 2 mps 728 mmHg 74%
    13:00 +29°C° 0.3 mm 2 mps 727 mmHg 70%
    14:00 +30°C° 0.3 mm 2 mps 726 mmHg 66%
    15:00 +31°C° 0.3 mm 3 mps 724 mmHg 62%
    16:00 +31°C° 0 mm 2 mps 724 mmHg 65%
    17:00 +30°C° 0 mm 2 mps 724 mmHg 68%
    18:00 +30°C° 0 mm 1 mps 724 mmHg 72%
    19:00 +29°C° 0 mm 1 mps 725 mmHg 75%
    20:00 +27°C° 0 mm 1 mps 725 mmHg 79%
    21:00 +26°C° 0 mm 1 mps 726 mmHg 82%
    22:00 +26°C° 0.1 mm 1 mps 726 mmHg 83%
    23:00 +26°C° 0.1 mm 1 mps 727 mmHg 85%

    28 June, Friday

    Time Temperature Precipitation Wind Pressure Humidity
    00:00 +25°C° 0.1 mm 1 mps 727 mmHg 86%
    01:00 +25°C° 0.3 mm 1 mps 726 mmHg 88%
    02:00 +25°C° 0.3 mm 2 mps 726 mmHg 91%
    03:00 +24°C° 0.3 mm 2 mps 726 mmHg 93%
    04:00 +24°C° 0 mm 2 mps 726 mmHg 94%
    05:00 +24°C° 0 mm 2 mps 726 mmHg 94%
    06:00 +23°C° 0 mm 2 mps 726 mmHg 95%
    07:00 +24°C° 0 mm 3 mps 726 mmHg 91%
    08:00 +26°C° 0 mm 3 mps 727 mmHg 86%
    09:00 +27°C° 0 mm 3 mps 727 mmHg 82%
    10:00 +28°C° 0 mm 3 mps 727 mmHg 76%
    11:00 +29°C° 0 mm 3 mps 727 mmHg 70%
    12:00 +31°C° 0 mm 3 mps 727 mmHg 65%
    13:00 +32°C° 0 mm 2 mps 726 mmHg 61%
    14:00 +32°C° 0 mm 2 mps 725 mmHg 58%
    15:00 +34°C° 0 mm 2 mps 725 mmHg 54%
    16:00 +32°C° 0.2 mm 2 mps 725 mmHg 60%
    17:00 +31°C° 0.2 mm 2 mps 724 mmHg 66%
    18:00 +30°C° 0.2 mm 2 mps 724 mmHg 71%
    19:00 +29°C° 0 mm 2 mps 725 mmHg 76%
    20:00 +28°C° 0 mm 2 mps 725 mmHg 80%
    21:00 +26°C° 0 mm 2 mps 726 mmHg 84%
    22:00 +26°C° 0 mm 2 mps 726 mmHg 86%
    23:00 +26°C° 0 mm 2 mps 726 mmHg 88%

    29 June, Saturday

    Time Temperature Precipitation Wind Pressure Humidity
    00:00 +25°C° 0 mm 2 mps 726 mmHg 90%
    01:00 +25°C° 0 mm 2 mps 726 mmHg 90%
    02:00 +25°C° 0 mm 2 mps 726 mmHg 90%
    03:00 +24°C° 0 mm 2 mps 726 mmHg 91%
    04:00 +24°C° 0 mm 2 mps 726 mmHg 92%
    05:00 +24°C° 0 mm 2 mps 726 mmHg 94%
    06:00 +22°C° 0 mm 3 mps 726 mmHg 95%
    07:00 +24°C° 0 mm 3 mps 726 mmHg 91%
    08:00 +25°C° 0 mm 3 mps 726 mmHg 88%
    09:00 +25°C° 0 mm 3 mps 727 mmHg 85%
    10:00 +26°C° 0 mm 3 mps 727 mmHg 81%
    11:00 +27°C° 0 mm 3 mps 727 mmHg 77%
    12:00 +28°C° 0 mm 3 mps 726 mmHg 73%
    13:00 +29°C° 0 mm 2 mps 726 mmHg 70%
    14:00 +30°C° 0 mm 2 mps 725 mmHg 67%
    15:00 +30°C° 0 mm 2 mps 725 mmHg 64%
    16:00 +30°C° 0 mm 2 mps 725 mmHg 66%
    17:00 +30°C° 0 mm 2 mps 724 mmHg 69%
    18:00 +29°C° 0 mm 2 mps 724 mmHg 71%
    19:00 +28°C° 0.2 mm 2 mps 725 mmHg 76%
    20:00 +27°C° 0.2 mm 2 mps 725 mmHg 80%
    21:00 +26°C° 0.2 mm 2 mps 726 mmHg 85%
    22:00 +25°C° 0 mm 2 mps 726 mmHg 87%
    23:00 +25°C° 0 mm 2 mps 726 mmHg 88%

    30 June, Sunday

    Time Temperature Precipitation Wind Pressure Humidity
    00:00 +25°C° 0 mm 2 mps 726 mmHg 90%
    01:00 +25°C° 0.1 mm 2 mps 726 mmHg 89%
    02:00 +25°C° 0.1 mm 2 mps 726 mmHg 88%
    03:00 +25°C° 0.1 mm 3 mps 726 mmHg 87%
    04:00 +24°C° 0 mm 3 mps 726 mmHg 89%
    05:00 +24°C° 0 mm 3 mps 726 mmHg 91%
    06:00 +24°C° 0 mm 3 mps 727 mmHg 93%
    07:00 +24°C° 0 mm 3 mps 727 mmHg 91%
    08:00 +24°C° 0 mm 3 mps 727 mmHg 88%
    09:00 +25°C° 0 mm 3 mps 728 mmHg 85%
    10:00 +27°C° 0 mm 3 mps 728 mmHg 79%
    11:00 +28°C° 0 mm 3 mps 728 mmHg 72%
    12:00 +30°C° 0 mm 3 mps 728 mmHg 66%
    13:00 +30°C° 0.2 mm 2 mps 727 mmHg 63%
    14:00 +31°C° 0.2 mm 2 mps 726 mmHg 60%
    15:00 +32°C° 0.2 mm 2 mps 726 mmHg 57%
    16:00 +31°C° 0.9 mm 2 mps 726 mmHg 64%
    17:00 +30°C° 0.9 mm 2 mps 725 mmHg 70%
    18:00 +28°C° 0.9 mm 2 mps 725 mmHg 77%
    19:00 +27°C° 0.7 mm 2 mps 726 mmHg 81%
    20:00 +26°C° 0.7 mm 2 mps 726 mmHg 85%
    21:00 +25°C° 0.7 mm 2 mps 727 mmHg 89%
    22:00 +25°C° 0 mm 2 mps 727 mmHg 90%
    23:00 +25°C° 0 mm 2 mps 727 mmHg 91%
    Show more